#timestamp,LO_Frequency,Hit,StdDev 
1620722815.6,286046922.3,P
1620722835.4,286046921.3,P
1620722855.3,286046922.6,P
1620722875.1,286046920.2,Y
1620722876.0,286046920.2,P
1620722895.8,286047001.2,N
1620722915.7,286046999.4,N
1620722935.5,286046998.5,N
1620722955.4,286046998.5,N
1620722975.2,286046998.6,N
1620722995.0,286046997.6,N
1620722995.9,286046997.6,N
1620723015.8,286046993.8,N
1620723035.6,286046992.9,N
1620723055.4,286046992.3,N
1620723075.3,286046990.4,N
1620723095.1,286046990.8,N
1620723115.9,286046990.4,N
1620723135.7,286046990.4,N
1620723155.5,286046991.4,N
1620723175.4,286046989.0,N
1620723195.2,286046991.6,N
1620723215.1,286046988.9,N
1620723216.0,286046988.9,N
1620723235.8,286046988.5,N
1620723255.6,286046990.9,N
1620723275.5,286046993.2,N
1620723295.3,286046990.7,N
1620723315.1,286046992.5,N
1620723335.9,286046991.3,N
1620723355.7,286046991.2,N
1620723375.6,286046988.9,N
1620723395.4,286046988.9,N
1620723415.2,286046988.7,N
1620723435.1,286046989.9,N
1620723436.0,286046989.9,N
1620723455.8,286046987.0,Y
1620723475.7,286046997.4,P
1620723495.5,286046997.9,N
1620723515.3,286046995.7,N
1620723535.2,286046993.6,N
1620723555.0,286046994.6,N
1620723555.9,286046994.6,N
1620723575.7,286046994.4,N
1620723595.6,286046994.8,N
